Location: Veytaux
(46.4185°N, 6.9320°E)
Time: 05:37:33
(UTC+00:00)

DEBRIS - Pass Details

Date: 28 September 2022
Orbit: 310 x 15046 km, 49.5° (Epoch: 28 November)

Event Time Altitude Azimuth Distance (km) Brightness Sun altitude
Rises 02:53:07 0° 164° (SSE) 11,676 9.4 -26.4°
Reaches altitude 10° 03:02:23 10° 156° (SSE) 12,349 9.6 -25.0°
Maximum altitude 04:38:36 49° 98° (E) 16,188 10.7 -9.1°
Drops below altitude 10° 05:58:28 10° 54° (NE) 12,146 10.4 4.6°
Sets 06:06:05 0° 52° (NE) 11,777 10.2 5.9°
